Regional Weather Roundup
Issued by NWS Kansas City/Pleasant Hill, MO

Home | Current Version | Previous Version | Graphics & Text | Print | Product List | Glossary Off
Versions: 1 2 3 4 5 6 7 8 9 10 11 12 13 14 15 16 17 18 19 20 21 22 23 24 25 26 27 28 29 30 31 32 33 34 35 36 37 38 39 40 41 42 43 44 45 46 47 48 49 50

000
ASUS43 KEAX 290110
RWREAX

WEATHER ROUNDUP FOR EASTERN KANSAS AND NORTHWEST MISSOURI
NATIONAL WEATHER SERVICE KANSAS CITY/PLEASANT HILL MO
800 PM CDT TUE MAR 28 2017

KSZ040-057-103>105-MOZ028-029-037-043-290200-
...KANSAS CITY METROPOLITAN AREA...

CITY           SKY/WX    TMP DP  RH WIND       PRES   REMARKS
K.C. INTL      CLOUDY    53  49  86 E13       30.02F
K.C. DOWNTOWN  CLOUDY    54  50  86 E13       30.00F
LEES SUMMIT    CLOUDY    53  51  93 NE10      30.01S
OLATHE - IXD   CLOUDY    53  50  89 NE13      30.00S
OLATHE - OJC   CLOUDY    52  51  97 NE9       29.99S
LAWRENCE       CLOUDY    53  51  93 NE13      30.00F

$$

MOZ001>008-011>017-020>025-030>033-038>040-044>046-053-054-290200-
...NORTHERN AND CENTRAL MISSOURI...

CITY           SKY/WX    TMP DP  RH WIND       PRES   REMARKS
ST. JOSEPH     CLOUDY    53  49  86 E6        30.04F
MOSBY          CLOUDY    54  48  82 E7        30.03F
WARRENSBURG    CLOUDY    54  48  82 NE10G16   30.02S
WHITEMAN AFB   CLOUDY    55  55  99 NE9       30.01S
CLINTON        MOCLDY    55  50  82 NE10      30.01R
SEDALIA        CLOUDY    56  51  84 NE7       30.04R
WARSAW         NOT AVBL
CHILLICOTHE      N/A     53  49  86 NE7       30.08R
KIRKSVILLE     CLOUDY    52  46  80 NE7       30.11R

$$

MOZ041-047>049-056>058-063>065-088>090-097-290200-
...EASTERN AND SOUTHERN MISSOURI...

CITY           SKY/WX    TMP DP  RH WIND       PRES   REMARKS
ST. LOUIS INTL CLOUDY    57  48  72 NE10      30.08S
SPIRIT OF STL  CLOUDY    56  49  77 NE12      30.06S
COLUMBIA       CLOUDY    56  50  80 E9        30.06R
JEFFERSON CITY CLOUDY    58  49  72 E8        30.05R
ROLLA          CLOUDY    53  49  86 NE12      30.03R
OSAGE BEACH    CLEAR     55  49  80 NE12      30.03R
SPRINGFIELD    CLEAR     63  50  62 E10       29.94R
BRANSON        PTCLDY    63  50  63 E13       29.94S
JOPLIN         CLEAR     62  52  69 E12       29.88F
WEST PLAINS    CLEAR     60  49  66 E7        30.00R

$$

IAZ060-094-KSZ022-034>040-054-083-096-NEZ052-066-093-290200-
...KANSAS...SOUTHEAST NEBRASKA AND IOWA...

CITY           SKY/WX    TMP DP  RH WIND       PRES   REMARKS
TOPEKA         CLOUDY    53  51  93 E14       29.98F
MANHATTAN      CLOUDY    52  48  86 NE15      29.91F
EMPORIA        CLOUDY    53  51  93 E18G30    29.89F
CHANUTE        CLOUDY    58  50  75 NE13      29.90F
WICHITA        LGT RAIN  53  49  86 N16       29.86R
OMAHA          CLOUDY    50  41  71 NE7       30.09F
LINCOLN        CLOUDY    48  41  76 NE12      30.09F
FALLS CITY     CLOUDY    52  47  83 E6        30.04F
LAMONI         CLOUDY    51  45  79 E7        30.09S
DES MOINES     CLOUDY    51  43  74 E5        30.14R

$$




USA.gov is the U.S. government's official web portal to all federal, state and local government web resources and services.